[[{"header":{"parameterUnit":"m.s-1","parameterCategory":1,"la1":30.2991,"la2":30.254,"lo1":-89.0895,"lo2":-89.0444,"dy":0.0017,"dx":0.0017,"nx":28,"ny":28,"refTime":"2024-08-09T09:00:00:Z","depth":0,"parameterNumber":2,"parameterNumberName":"U-component_of_WINDS"},"data":[0,0,0,0,0,0,0,0,0,0,0,0,0,0,0,0,0,0,0,0,0,0,0,0,0,0,0,0,0,0,0,0,0,0,0,0,0,0,0,0,0,0,0,0,0,0,0,0,0,0,0,0,0,0,0,0,0,0,1.9958,1.9959,0,2.0075,2.0077,2.0078,2.0067,2.0065,2.0063,2.0061,2.019,2.0195,2.02,0,0,0,0,0,0,0,0,0,0,0,0,0,1.9731,1.9735,1.9957,1.9959,1.996,2.0075,2.0077,2.0079,2.0067,2.0065,2.0062,2.006,2.0188,2.0194,2.02,0,0,0,0,0,0,0,0,0,0,0,0,0,1.9837,1.9736,1.9957,1.9968,1.997,2.0075,2.0077,2.0079,2.0067,2.0065,2.0062,2.0059,2.0186,2.0193,2.0201,2.0304,0,0,2.0225,2.0228,0,0,0,0,0,0,0,0,1.9831,1.9846,1.9965,1.9968,1.997,2.0053,2.0044,2.0155,2.0068,2.0031,2.0061,2.0058,2.0147,2.0158,2.0186,2.031,2.0316,2.0225,2.023,2.0233,2.0235,0,0,0,0,0,0,0,1.9824,1.9841,2.0004,1.9967,1.997,1.997,1.9982,2.0065,2.0103,2.0034,2.0033,2.0047,2.0148,2.0179,2.0189,2.0318,2.0225,2.0232,2.0237,2.024,2.0536,2.0539,0,0,0,0,0,0,1.9813,1.9834,2.0001,2.0008,1.9892,1.9977,1.999,2.003,2.0102,2.0111,2.0049,2.0046,2.0167,2.018,2.0194,2.0322,2.0233,2.024,2.0245,2.0533,2.0537,2.0541,0,0,0,0,0,0,1.9808,1.9828,1.9996,1.9921,1.9942,1.9983,2.0028,2.0033,2.0064,2.0114,2.0121,2.0073,2.0165,2.0183,2.0277,2.0326,2.0244,2.0251,2.0529,2.0534,2.0539,2.0577,0,0,0,0,0,0,1.9801,1.9826,1.9863,1.9922,1.9946,2.0075,2.0031,2.0038,2.0077,2.0074,2.0138,2.0147,2.0164,2.0266,2.0285,2.0335,2.0257,2.0525,2.0532,2.0537,2.0572,2.0583,2.0592,0,0,0,0,0,1.9793,1.987,1.9865,1.9885,1.9994,2.0078,2.0092,2.0109,2.008,2.012,2.0153,2.0144,2.0317,2.0275,2.0297,2.035,2.0522,2.053,2.0537,2.0567,2.0581,2.0592,0,0,0,0,0,0,1.9819,1.9878,1.9873,1.9971,2.0019,2.0075,2.0126,2.0122,2.0181,2.0176,2.0197,2.0212,2.0307,2.0338,2.029,2.0456,2.0416,2.0428,2.0432,2.0445,2.0455,2.0447,2.0263,0,0,0,0,0,1.9835,1.9896,1.9945,2.0027,2.0051,2.0084,2.0122,2.013,2.0182,2.0203,2.0242,2.0295,2.0362,2.0405,2.0469,2.0576,2.0592,2.0624,2.0634,2.0642,2.0653,2.0715,2.0731,2.0565,2.0565,2.0564,0,0,1.9871,1.9911,1.9948,2.0033,2.0072,2.0137,2.0102,2.0172,2.0221,2.0215,2.0306,2.0337,2.0397,2.0499,2.0546,2.0528,2.0702,2.0651,2.0657,2.0664,2.0724,2.074,2.0754,2.057,2.0569,2.0568,0,0,1.997,2.0005,2.0078,2.0117,2.0175,2.0196,2.0214,2.0271,2.0291,2.0383,2.038,2.044,2.0553,2.0597,2.0635,2.0752,2.0748,2.0773,2.0827,2.0887,2.09,2.0912,2.0957,2.0972,2.0783,2.0783,2.0783,0,2.0008,2.0103,2.0117,2.0188,2.0227,2.0221,2.0298,2.0336,2.0413,2.0441,2.0419,2.0562,2.0602,2.0716,2.0745,2.0774,2.0798,2.0766,2.0897,2.0909,2.092,2.0963,2.0979,2.0786,2.0785,2.0785,2.0785,0,2.0148,2.0215,2.0268,2.034,2.0385,2.0458,2.0486,2.053,2.0536,2.0561,2.0656,2.0704,2.0779,2.0806,2.0812,2.0922,2.0909,2.0891,2.0853,2.0938,2.0979,2.0996,2.079,2.0789,2.0788,2.0787,0,0,2.0267,2.0346,2.0365,2.0399,2.0463,2.0517,2.0591,2.0662,2.0701,2.0755,2.082,2.0917,2.0901,2.0944,2.0955,2.1008,2.1102,2.0985,2.0987,2.1007,2.1229,2.1243,2.1262,2.1099,2.1102,2.1104,2.1225,0,2.0374,2.0503,2.0518,2.0635,2.0698,2.0695,2.0761,2.0809,2.0835,2.0895,2.0925,2.0994,2.0967,2.0993,2.1045,2.1079,2.1147,2.1071,2.1163,2.1166,2.115,2.1283,2.1298,2.1409,2.1241,2.1243,2.1245,0,2.0516,2.0572,2.0694,2.0752,2.0779,2.0837,2.0905,2.0961,2.1017,2.1033,2.108,2.1086,2.1166,2.1123,2.1236,2.1184,2.1223,2.1246,2.1251,2.1262,2.1212,2.13,2.1444,2.1462,2.127,2.1268,2.1266,0,2.0593,2.0699,2.0787,2.0816,2.0884,2.0926,2.0957,2.101,2.1052,2.1112,2.1141,2.121,2.1248,2.1303,2.1329,2.1294,2.1442,2.1399,2.146,2.146,2.1493,2.1491,2.1648,2.1514,2.1514,2.1513,2.1513,0,2.0712,2.0788,2.0823,2.0877,2.0963,2.0981,2.1066,2.1096,2.1144,2.1206,2.1208,2.1267,2.1295,2.136,2.138,2.1473,2.149,2.1507,2.1512,2.1508,2.1507,2.1536,2.153,2.1518,2.1517,2.1516,2.1515,0,2.0814,2.084,2.0935,2.0992,2.1008,2.107,2.112,2.1174,2.1199,2.1278,2.1298,2.1339,2.1415,2.1445,2.1539,2.1553,2.166,2.1658,2.1641,2.1643,2.1702,2.1697,2.1886,2.1913,2.1759,2.176,2.1761,0,2.0889,2.0947,2.101,2.1051,2.1083,2.1149,2.1192,2.1213,2.1258,2.1327,2.1374,2.1449,2.1511,2.1633,2.1673,2.1746,2.1747,2.1808,2.1758,2.1753,2.1751,2.1748,2.1756,2.1818,2.182,2.1821,2.1822,0,2.1021,2.1031,2.1092,2.1158,2.1209,2.1263,2.1315,2.1349,2.1378,2.143,2.1507,2.1554,2.1649,2.1726,2.18,2.1836,2.1836,2.1837,2.1855,2.1853,2.1842,2.1851,2.1669,2.1833,2.1832,2.1831,2.183,2.183,2.1114,2.1166,2.1219,2.1288,2.1329,2.1378,2.1432,2.1464,2.1527,2.1605,2.1614,2.1698,2.1755,2.1855,2.1894,2.1961,2.1946,2.1972,2.1979,2.1985,2.1991,2.1829,2.1975,2.1975,2.1974,2.1974,2.1974,0,2.1248,2.1282,2.1345,2.1417,2.1472,2.1463,2.1522,2.1569,2.1641,2.1694,2.1754,2.1844,2.1918,2.1964,2.204,2.2085,2.2087,2.2105,2.2103,2.2112,2.1999,2.1977,2.2102,2.2102,2.2102,2.2102,2.2102,2.2102,2.1325,2.1414,2.1431,2.1541,2.1575,2.1655,2.1689,2.1736,2.1778,2.1878,2.1939,2.1967,2.2018,2.2098,2.2167,2.2178,2.2208,2.2227,2.2238,2.2132,2.2119,2.2107,2.2086,2.2232,2.2232,2.2345,2.2346,2.2347]},{"header":{"parameterUnit":"m.s-1","parameterCategory":1,"la1":30.2991,"la2":30.254,"lo1":-89.0895,"lo2":-89.0444,"dy":0.0017,"dx":0.0017,"nx":28,"ny":28,"refTime":"2024-08-09T09:00:00:Z","depth":0,"parameterNumber":3,"parameterNumberName":"V-component_of_WINDS"},"data":[0,0,0,0,0,0,0,0,0,0,0,0,0,0,0,0,0,0,0,0,0,0,0,0,0,0,0,0,0,0,0,0,0,0,0,0,0,0,0,0,0,0,0,0,0,0,0,0,0,0,0,0,0,0,0,0,0,0,0.4108,0.411,0,0.4306,0.4308,0.4311,0.4258,0.4254,0.4251,0.4247,0.4451,0.446,0.4469,0,0,0,0,0,0,0,0,0,0,0,0,0,0.3683,0.3691,0.4108,0.411,0.4113,0.4306,0.4308,0.4311,0.4259,0.4254,0.425,0.4245,0.4448,0.4459,0.447,0,0,0,0,0,0,0,0,0,0,0,0,0,0.3873,0.3694,0.4107,0.411,0.4112,0.4305,0.4309,0.4312,0.426,0.4254,0.4248,0.4243,0.4444,0.4458,0.4471,0.4674,0,0,0.4513,0.4519,0,0,0,0,0,0,0,0,0.3862,0.3889,0.4107,0.411,0.4113,0.4251,0.4233,0.4433,0.4262,0.4204,0.4247,0.424,0.439,0.4407,0.4458,0.4684,0.4692,0.4514,0.4523,0.4528,0.4532,0,0,0,0,0,0,0,0.3849,0.388,0.4186,0.411,0.4114,0.4101,0.4121,0.4271,0.4328,0.4209,0.4205,0.4229,0.439,0.4444,0.4462,0.4695,0.4514,0.4526,0.4534,0.454,0.5094,0.51,0,0,0,0,0,0,0.3834,0.3869,0.418,0.4192,0.397,0.4113,0.4136,0.4213,0.4326,0.4337,0.4234,0.4226,0.4424,0.4446,0.4469,0.4712,0.4528,0.4541,0.4549,0.5088,0.5096,0.5103,0,0,0,0,0,0,0.3825,0.3862,0.4172,0.403,0.4068,0.4127,0.4214,0.422,0.4274,0.4345,0.4355,0.428,0.442,0.445,0.4623,0.4718,0.4547,0.456,0.508,0.509,0.5099,0.52,0,0,0,0,0,0,0.3813,0.3859,0.3937,0.4032,0.4076,0.4323,0.422,0.4228,0.4298,0.4289,0.439,0.4401,0.4418,0.4602,0.4636,0.4734,0.457,0.5072,0.5084,0.5096,0.5189,0.5212,0.5232,0,0,0,0,0,0.3798,0.3959,0.3942,0.3979,0.4175,0.4329,0.4354,0.4369,0.4306,0.4385,0.4429,0.4398,0.4702,0.4621,0.4658,0.4761,0.5066,0.5081,0.5095,0.5179,0.5207,0.5232,0,0,0,0,0,0,0.3875,0.3971,0.3953,0.415,0.4231,0.432,0.442,0.44,0.4501,0.4489,0.4504,0.4527,0.4703,0.475,0.4657,0.4962,0.4875,0.4897,0.4925,0.4953,0.4975,0.496,0.4582,0,0,0,0,0,0.3915,0.4032,0.4109,0.4275,0.4317,0.4361,0.4429,0.4433,0.4518,0.4553,0.461,0.4694,0.4808,0.4883,0.4992,0.5194,0.5214,0.5284,0.5305,0.5323,0.5343,0.545,0.5481,0.5151,0.5151,0.515,0,0,0.3999,0.4066,0.4139,0.4292,0.4356,0.4476,0.4391,0.4522,0.4611,0.4573,0.4739,0.4784,0.4878,0.5066,0.5152,0.511,0.5438,0.5342,0.5355,0.5366,0.5468,0.55,0.5527,0.5161,0.5159,0.5157,0,0,0.4212,0.4275,0.4419,0.4484,0.4581,0.4609,0.4643,0.4734,0.4762,0.4929,0.4902,0.5007,0.5204,0.5271,0.5332,0.5567,0.5541,0.5602,0.5717,0.5821,0.5847,0.587,0.5952,0.5982,0.5621,0.5621,0.5622,0,0.4304,0.4484,0.4496,0.4629,0.4696,0.4666,0.481,0.4873,0.5001,0.5048,0.4999,0.5243,0.5305,0.5506,0.5563,0.5613,0.5652,0.5591,0.5842,0.5866,0.5887,0.5966,0.5997,0.5628,0.5627,0.5627,0.5626,0,0.4591,0.4716,0.482,0.4943,0.5022,0.5161,0.5192,0.5271,0.5267,0.53,0.5468,0.5541,0.5662,0.571,0.571,0.5911,0.5882,0.5838,0.5751,0.5925,0.5999,0.6029,0.5638,0.5635,0.5633,0.5632,0,0,0.4861,0.4986,0.5024,0.5078,0.5181,0.5278,0.5413,0.5531,0.5597,0.5686,0.5799,0.5964,0.5923,0.5991,0.5997,0.6089,0.6267,0.6033,0.6035,0.6073,0.6491,0.6523,0.6558,0.6251,0.6256,0.6261,0.6483,0,0.5083,0.5322,0.5334,0.5551,0.5665,0.5636,0.5754,0.5829,0.5863,0.5964,0.6,0.6116,0.6054,0.6095,0.6184,0.6227,0.6352,0.6211,0.6355,0.636,0.6332,0.6597,0.6632,0.6838,0.6512,0.6517,0.6521,0,0.5374,0.5469,0.5697,0.578,0.5829,0.5935,0.6042,0.6139,0.6223,0.6241,0.6315,0.6307,0.6444,0.6352,0.654,0.6444,0.6503,0.6533,0.6541,0.6555,0.6451,0.6617,0.6905,0.6935,0.6566,0.6563,0.656,0,0.5546,0.5731,0.589,0.5938,0.604,0.6115,0.6161,0.6239,0.6308,0.6401,0.6446,0.6555,0.6614,0.6698,0.6719,0.665,0.6906,0.6816,0.6923,0.6923,0.6979,0.6975,0.7279,0.7019,0.7018,0.7018,0.7017,0,0.5791,0.5931,0.5969,0.6067,0.6222,0.6234,0.6387,0.6428,0.6497,0.6602,0.6583,0.6682,0.6703,0.6806,0.6822,0.6974,0.7002,0.7019,0.7022,0.702,0.7018,0.7059,0.7045,0.7026,0.7024,0.7023,0.7021,0,0.601,0.6041,0.6212,0.6294,0.6318,0.6428,0.6498,0.6591,0.662,0.6753,0.6784,0.6831,0.695,0.6979,0.7121,0.7132,0.7312,0.7301,0.7283,0.7282,0.7387,0.7377,0.7728,0.7774,0.7484,0.7487,0.749,0,0.6165,0.6271,0.6363,0.6432,0.6481,0.6591,0.6661,0.6677,0.675,0.6851,0.6932,0.7048,0.7142,0.7333,0.738,0.7487,0.7479,0.7594,0.7495,0.7489,0.7478,0.7471,0.7481,0.7613,0.7616,0.7619,0.7621,0,0.6435,0.6444,0.6545,0.6651,0.6734,0.6818,0.6899,0.6956,0.6982,0.7065,0.7186,0.7258,0.7402,0.7517,0.7625,0.7671,0.7651,0.7652,0.7682,0.7681,0.7666,0.7674,0.7334,0.7644,0.7641,0.764,0.7639,0.7638,0.6625,0.6718,0.6796,0.6908,0.697,0.7045,0.7135,0.7175,0.7276,0.7394,0.7397,0.7528,0.7606,0.7748,0.78,0.7902,0.7866,0.7911,0.7922,0.7932,0.7941,0.765,0.7922,0.7921,0.7921,0.792,0.792,0,0.6893,0.6941,0.7045,0.7156,0.7244,0.7216,0.7302,0.7378,0.7493,0.7567,0.7659,0.7797,0.7907,0.7961,0.807,0.8141,0.8134,0.8169,0.8164,0.8174,0.7967,0.793,0.8173,0.8173,0.8173,0.8173,0.8173,0.8173,0.7043,0.7197,0.7214,0.7398,0.7445,0.7573,0.7624,0.7692,0.7751,0.7905,0.7996,0.803,0.8096,0.8209,0.8308,0.8321,0.8362,0.8401,0.8409,0.8215,0.8189,0.8165,0.8129,0.841,0.8411,0.8607,0.8609,0.8611]}]]